PROXIMA I (43694 NORAD) Tracking and Keplerian Element Data

This shows tracking and keplerian element data for the satellite.

Feedback or suggestion? Click here.




ElementValue
Catalog43694
NamePROXIMA I
Epoch Orbit441
Epoch Day344.20174372
Epoch Year2018
RAAN83.7941
Inclination85.0337
Eccentricity0.0020491
Argument of Perigee158.3156
Mean Anonmoly201.8958
Mean Motion15.2103758
Decay Rate1.036E-05
L11 43694U 18088E 18344.20174372 .00001036 00000-0 44603-4 0 9998
L22 43694 85.0337 83.7941 0020491 158.3156 201.8958 15.21037580 4415

Live tracking and technical data element details for PROXIMA I (NORAD 43694). PROXIMA I can be tracked NOW for your location showing map with azimuth and elevation plus other details from your city location.

Track the satellite on the map from your city or location and see movement details for azimuth, elevation, latitude, longitude, range, height, and movement on the map or in text.







IsCatalogInMostPopularTable: catalog: 43694, numindb: 20
Update: records affected: 1



GetName: 43694 PROXIMA I

Hit Count: updated at: Tue, 11 Dec 2018 01:53:50 GMT